OBJECT AQ, 57204

Orbit data source: Space-Track

You're viewing an uncataloged RSO

Recently launched and/or uncataloged RSOs may have evolving metadata. Metadata may include the following, but is not limited to: Owner, Manufacturer, Bus, Motor, and Mission.

OBJECT AQ, 57204 is a satellite in SSO that was launched on Tue, 27 Jun 2023 UTC via a SOYUZ-2-1B launch vehicle from the Vostochny Cosmodrome (VOSTO). Unknown objects in Earth's orbit typically refer to objects detected orbiting the Earth but have not yet been identified or cataloged. These objects could be anything from previously untracked satellites, spent rocket stages, debris from satellite collisions, or even natural meteoroids temporarily captured by Earth's gravity.

Loading next visibility...
Identifier
57204, 2023-091AQ
Orbit
SSO
Country
Flag of TBDTBD
Related business
Manufacturer
Sputniks
Mission
Operational Commercial Communications
Bus & Motor
CUBESAT 3U?, Unknown motor
Mass
3 kg wet, 3 kg dry
Launch date (UTC)
2023-06-27 (3 years ago)
Launch vehicle
SOYUZ-2-1B
Launch site
Vostochny Cosmodrome (VOSTO)
Object type
Unknown
Shape & HBR
Box, 0.2 m
Radar Cross Section
0.035 m², Medium (>0.1 m² and < 1m²)

Expand to show TLE details & history
Last TLE update: 5 hours ago

TLE from 5 hours ago
0 OBJECT AQ
1 57204U 23091AQ  26220.20538807  .00010096  00000-0  25318-3 0  9996
2 57204  97.5059 292.2393 0005216 224.5065 135.5763 15.40227447172773
Epoch: 2026-08-08T04:55Z
TLE epoch observation values (Epoch: 2026-08-08T04:55:45.529Z)
Latitude
0.00006°
Longitude
-98.42048°
Altitude
451.096 km
Speed
7.64 km/s
True Right ascension
19h 28m 57s
True Declination
0° 00' 00"
Sunlit
Object was in full shadow at epoch
Visualization orbit readout
Latitude
Unknown
Longitude
Unknown
Altitude
Unknown
Speed
Unknown
Apparent Right ascension
Unknown
Apparent Declination
Unknown
Sunlit
N/A
Visualization observer readout
Local Sidereal Time
23:56:03
Azimuth
Unknown
Elevation
Unknown
Doppler factor
Unknown
Orbital elements
Apogee altitude
445.938 km
Perigee altitude
438.823 km
Semi-major axis
6,820.518 km
Eccentricity
0.00052
Inclination
97.5059°
RAAN
292.2393°
Arg. of periapsis
224.5065°
True anomaly
135.61812°
Mean anomaly
135.5763°
Eccentric anomaly
135.59721°
Mean motion
3.85316 °/min
Orbital period
93.43 mins
BSTAR
0.00025318
Loading maneuver chart data...
Computing Atmospheric mass density...
Loading historical data...
Loading historical data...
Loading historical data...
Loading historical data...
Loading historical data...
Loading historical data...
Loading historical data...

Documentation

Showing up to 5 results
|